Location: Bli��� Lhota
(48.7570°N, 14.0120°E)
Time: 05:33:11
(UTC+00:00)

MOS 1 Rocket - Pass Details

Date: 18 September 2020
Orbit: 614 x 831 km, 97.4° (Epoch: 29 October)

Event Time Altitude Azimuth Distance (km) Brightness Sun altitude
Rises 18:56:32 0° 7° (N) 3,046 6.8 -17.9°
Reaches altitude 10° 18:58:54 10° 1° (N) 2,095 6.1 -18.2°
Maximum altitude 19:03:11 43° 291° (WNW) 905 4.4 -18.9°
Drops below altitude 10° 19:07:17 10° 220° (SW) 1,996 5.8 -19.5°
Sets 19:09:30 0° 213° (SSW) 2,884 6.6 -19.8°
